DELTA 1 DEB, 29181

Orbit data source: Space-Track

DELTA 1 DEB, 29181 is space debris in LEO originally from a launch on Thu, 11 Jan 1968 UTC launched from the Air Force Western Test Range (AFWTR). Debris objects in space refer to the collection of defunct objects orbiting the Earth. Examples of debris include non-operational satellites, rocket bodies, and fragments generated from explosions, collisions, or faulty payload assembly.

Loading next visibility...
Identifier
29181, 1968-002E
Orbit
LEO
Last TLE update
6 months ago
Origin
Manufacturer
Unknown
Mission
Spacecraft
Bus & Motor
Unknown
Mass
Unknown
Launch date (UTC)
1968-01-11 (57 years ago)
Launch vehicle
Unknown
Launch site
Air Force Western Test Range (AFWTR)
Object type
Payload
Rocket body
Debris
Shape & HBR
Unknown
Radar Cross Section
Small (<0.1 m²)

Expand to show TLE details & history

TLE from 6 months ago
0 DELTA 1 DEB
1 29181U 68002E   25013.03373997  .00000090  00000-0  50953-3 0  9993
2 29181 105.7921 291.5651 0306850 334.8020  23.8353 12.91716047236620
Epoch: 2025-01-13T00:48Z
TLE epoch observation values (Epoch: 2025-01-13T00:48:35.133Z)
Latitude
-0.00006°
Longitude
166.65814°
Altitude
1,083.006 km
Speed
7.412 km/s
True Right ascension
19h 26m 15s
True Declination
0° 00' 00"
Sunlit
Object was in daylight at epoch
Visualization orbit readout
Latitude
-30.40598°
Longitude
-142.18302°
Altitude
1,518.357 km
Speed
7.006 km/s
Apparent Right ascension
01h 51m 51s
Apparent Declination
-63° 21' 47"
Sunlit
Object is in daylight
Visualization observer readout
Local Sidereal Time
20:27:38
Azimuth
148.767° SSE
Elevation
-31.337°
Doppler factor
1
Orbital elements
Apogee altitude
1,527.864 km
Perigee altitude
1,057.117 km
Semi-major axis
7,670.627 km
Eccentricity
0.03069
Inclination
105.7921°
RAAN
291.5651°
Arg. of periapsis
334.802°
True anomaly
Unknown
Mean anomaly
23.8353°
Eccentric anomaly
Unknown
Mean motion
3.2307 °/min
Orbital period
111.43 mins
BSTAR
0.00050953
Loading maneuver chart data...
Loading SW <> Apogee altitude chart data...
Loading historical data...
Loading historical data...
Loading historical data...
Loading historical data...
Loading historical data...
Loading historical data...
Loading historical data...

DELTA 1 DEB Visibility forecast

Observer location: undefined°, undefined°

Span
Click to sort rows by Start time (UTC) header in descending order
Start Az.
Max El. time (UTC)
Max El. Az.
Max El.
End time (UTC)
End Az.
14 mins2025-07-01 12:03:27.631Z33.225° NE2025-07-01 12:09:27.631Z95.004° ESE38.834°2025-07-01 12:17:27.631Z185.478° SSW
10 mins2025-07-01 13:54:27.631Z354.295° N2025-07-01 13:58:27.631Z307.43° NW28.321°2025-07-01 14:04:27.631Z247.824° W
5 mins2025-07-01 20:59:27.631Z69.826° E2025-07-01 21:01:27.631Z49.559° ENE14.695°2025-07-01 21:04:27.631Z19.2° NNE
11 mins2025-07-01 22:44:27.631Z150.608° SSE2025-07-01 22:49:27.631Z113.963° SE44.189°2025-07-01 22:55:27.631Z339.814° N
5 mins2025-07-02 00:37:27.631Z239.581° WSW2025-07-02 00:39:27.631Z259.931° W14.645°2025-07-02 00:42:27.631Z289.915° WNW
|